IRIDIUM 91 [+] (27372 NORAD) Tracking and Keplerian Element Data

This shows tracking and keplerian element data for the satellite.

Feedback or suggestion? Click here.




ElementValue
Catalog27372
NameIRIDIUM 91 [+]
Epoch Orbit88977
Epoch Day348.74693682
Epoch Year2018
RAAN59.1709
Inclination86.3978
Eccentricity0.0002571
Argument of Perigee92.4463
Mean Anonmoly267.7027
Mean Motion14.34221415
Decay Rate1.59E-06
L11 27372U 02005A 18348.74693682 .00000159 00000-0 49586-4 0 9998
L22 27372 86.3978 59.1709 0002571 92.4463 267.7027 14.34221415889775

Live tracking and technical data element details for IRIDIUM 91 [+] (NORAD 27372). IRIDIUM 91 [+] can be tracked NOW for your location showing map with azimuth and elevation plus other details from your city location.

Track the satellite on the map from your city or location and see movement details for azimuth, elevation, latitude, longitude, range, height, and movement on the map or in text.







IsCatalogInMostPopularTable: catalog: 27372, numindb: 56
Update: records affected: 1



GetName: 27372 IRIDIUM 91 [+]

Hit Count: updated at: Sat, 15 Dec 2018 18:45:10 GMT